| time (UTC) | temp F | wind direction | speed MPH | gust MPH | rain 1hr in | rain 24hr in | rain mn in | humidity % | barometer mb |
| 20260504184543 | 77 | 232 | 0.0 | 2.0 | 0.00 | 0.00 | 0.00 | 53 | 1016.7 |
| 20260504183052 | 77 | 234 | 0.0 | 4.0 | 0.00 | 0.00 | 0.00 | 51 | 1016.8 |
| 20260504181538 | 78 | 270 | 0.0 | 5.0 | 0.00 | 0.00 | 0.00 | 51 | 1017.2 |
| 20260504180056 | 77 | 250 | 1.0 | 6.0 | 0.00 | 0.00 | 0.00 | 52 | 1017.2 |
| 20260504174536 | 78 | 222 | 0.0 | 6.0 | 0.00 | 0.00 | 0.00 | 49 | 1017.4 |
| 20260504173032 | 77 | 257 | 0.0 | 4.0 | 0.00 | 0.00 | 0.00 | 51 | 1017.4 |
| 20260504171531 | 78 | 241 | 0.0 | 3.0 | 0.00 | 0.00 | 0.00 | 50 | 1017.7 |
| 20260504081522 | 51 | 276 | 0.0 | 0.0 | 0.00 | 0.00 | 0.00 | 96 | 1018.0 |
| 20260504050113 | 54 | 276 | 0.0 | 0.0 | 0.00 | 0.00 | 0.00 | 94 | 1019.4 |
| 20260504044557 | 54 | 276 | 0.0 | 0.0 | 0.00 | 0.00 | 0.00 | 94 | 1019.5 |
| 20260504043104 | 55 | 276 | 0.0 | 0.0 | 0.00 | 0.00 | 0.00 | 94 | 1019.7 |
| 20260504041559 | 55 | 276 | 0.0 | 0.0 | 0.00 | 0.00 | 0.00 | 92 | 1019.8 |
| 20260504040103 | 55 | 276 | 0.0 | 0.0 | 0.00 | 0.00 | 0.00 | 92 | 1019.8 |
| 20260504034610 | 55 | 276 | 0.0 | 0.0 | 0.00 | 0.00 | 0.00 | 92 | 1019.8 |
| 20260504033058 | 56 | 276 | 0.0 | 0.0 | 0.00 | 0.00 | 0.00 | 92 | 1019.9 |
| 20260504031602 | 56 | 276 | 0.0 | 0.0 | 0.00 | 0.00 | 0.00 | 90 | 1019.8 |
| 20260504030053 | 57 | 276 | 0.0 | 0.0 | 0.00 | 0.00 | 0.00 | 90 | 1019.7 |
| 20260504024557 | 58 | 276 | 0.0 | 0.0 | 0.00 | 0.00 | 0.00 | 89 | 1019.7 |
| 20260504023053 | 58 | 276 | 0.0 | 0.0 | 0.00 | 0.00 | 0.00 | 88 | 1019.7 |
| 20260504021556 | 59 | 276 | 0.0 | 0.0 | 0.00 | 0.00 | 0.00 | 86 | 1019.5 |
| 20260504014553 | 60 | 276 | 0.0 | 0.0 | 0.00 | 0.00 | 0.00 | 83 | 1018.9 |
| 20260504013051 | 61 | 276 | 0.0 | 0.0 | 0.00 | 0.00 | 0.00 | 80 | 1018.7 |
| 20260504011550 | 62 | 276 | 0.0 | 0.0 | 0.00 | 0.00 | 0.00 | 76 | 1018.6 |
| 20260504010049 | 64 | 276 | 0.0 | 0.0 | 0.00 | 0.00 | 0.00 | 76 | 1018.6 |
| 20260504004549 | 66 | 276 | 0.0 | 0.0 | 0.00 | 0.00 | 0.00 | 72 | 1018.5 |
| 20260504003049 | 68 | 276 | 0.0 | 0.0 | 0.00 | 0.00 | 0.00 | 69 | 1018.5 |
| 20260504001548 | 69 | 276 | 0.0 | 0.0 | 0.00 | 0.00 | 0.00 | 66 | 1018.4 |
| 20260504000051 | 72 | 276 | 0.0 | 0.0 | 0.00 | 0.00 | 0.00 | 63 | 1018.4 |
| 20260503234546 | 73 | 276 | 0.0 | 0.0 | 0.00 | 0.00 | 0.00 | 51 | 1018.5 |
| 20260503233044 | 73 | 276 | 0.0 | 0.0 | 0.00 | 0.00 | 0.00 | 49 | 1018.5 |
| 20260503231544 | 73 | 276 | 0.0 | 1.0 | 0.00 | 0.00 | 0.00 | 44 | 1018.5 |
| 20260503224542 | 74 | 275 | 0.0 | 1.0 | 0.00 | 0.00 | 0.00 | 45 | 1018.7 |
| 20260503223041 | 74 | 213 | 0.0 | 5.0 | 0.00 | 0.00 | 0.00 | 45 | 1018.9 |
| 20260503221539 | 75 | 277 | 0.0 | 3.0 | 0.00 | 0.00 | 0.00 | 42 | 1018.9 |
| 20260503220036 | 75 | 279 | 0.0 | 2.0 | 0.00 | 0.00 | 0.00 | 41 | 1019.1 |
| 20260503214541 | 75 | 279 | 1.0 | 4.0 | 0.00 | 0.00 | 0.00 | 40 | 1019.1 |
| 20260503213036 | 75 | 274 | 0.0 | 7.0 | 0.00 | 0.00 | 0.00 | 45 | 1019.2 |
| 20260503211530 | 74 | 271 | 0.0 | 3.0 | 0.00 | 0.00 | 0.00 | 43 | 1019.5 |
| 20260503210029 | 74 | 63 | 0.0 | 4.0 | 0.00 | 0.00 | 0.00 | 40 | 1019.7 |
| 20260503204530 | 75 | 263 | 0.0 | 3.0 | 0.00 | 0.00 | 0.00 | 44 | 1020.0 |
| 20260503203025 | 75 | 267 | 0.0 | 2.0 | 0.00 | 0.00 | 0.00 | 43 | 1020.1 |
| 20260503201523 | 75 | 275 | 0.0 | 1.0 | 0.00 | 0.00 | 0.00 | 44 | 1020.3 |
| 20260503200032 | 75 | 274 | 0.0 | 4.0 | 0.00 | 0.00 | 0.00 | 46 | 1020.7 |
| 20260503194521 | 74 | 255 | 0.0 | 4.0 | 0.00 | 0.00 | 0.00 | 47 | 1020.9 |
| 20260503193028 | 74 | 260 | 1.0 | 3.0 | 0.00 | 0.00 | 0.00 | 46 | 1021.2 |
| 20260503191520 | 74 | 267 | 0.0 | 3.0 | 0.00 | 0.00 | 0.00 | 44 | 1021.5 |
| 20260503190018 | 74 | 263 | 1.0 | 5.0 | 0.00 | 0.00 | 0.00 | 45 | 1021.7 |